GW4501 Weather Reports


time (UTC)temp
F
wind
direction
speed
knots
gust
knots
rain 1hr
in
rain 24hr
in
rain mn
in
humidity
%
barometer
mb
20260906022350 77 230 0.0 0.0 0.00 0.02 0.02 90 1012.6
20260906021846 77 228 0.9 0.9 0.00 0.02 0.02 90 1012.7
20260906021345 77 232 0.0 0.9 0.00 0.02 0.02 90 1012.6
20260906020839 77 234 1.7 1.7 0.00 0.02 0.02 90 1012.5
20260906020339 78 230 0.0 0.0 0.00 0.02 0.02 90 1012.7
20260906015834 78 230 0.0 0.0 0.00 0.02 0.02 89 1012.4
20260906015332 79 230 0.0 0.0 0.00 0.02 0.02 88 1012.6
20260906014827 79 236 0.0 0.0 0.00 0.02 0.02 86 1012.4
20260906014322 79 234 0.0 0.0 0.00 0.02 0.02 86 1012.4
20260906013818 79 220 0.0 0.0 0.00 0.02 0.02 85 1012.4
20260906013313 79 232 0.0 0.0 0.00 0.02 0.02 85 1012.1
20260906012809 80 219 0.0 0.0 0.00 0.02 0.02 85 1012.3
20260906012309 80 226 0.0 0.0 0.00 0.02 0.02 83 1012.1
20260906011804 80 227 0.0 0.0 0.00 0.02 0.02 83 1011.9
20260906011303 80 231 0.0 0.9 0.00 0.02 0.02 83 1012.0
20260906010759 80 226 0.0 0.0 0.00 0.02 0.02 83 1012.3
20260906010256 80 226 0.0 0.9 0.00 0.02 0.02 83 1012.3
20260906005750 81 230 0.9 1.7 0.00 0.02 0.02 83 1012.4
20260906005250 80 221 0.0 0.0 0.00 0.02 0.02 83 1012.5
20260906004749 81 230 0.0 0.0 0.00 0.02 0.02 83 1012.5
20260906004244 81 218 0.0 0.0 0.00 0.02 0.02 83 1012.6
20260906003739 80 239 0.9 0.9 0.00 0.02 0.02 84 1012.5
20260906003235 81 244 0.0 0.0 0.00 0.02 0.02 84 1012.4
20260906002734 81 245 0.0 0.0 0.00 0.02 0.02 82 1012.5
20260906002229 81 244 0.0 0.0 0.00 0.02 0.02 82 1012.7
20260906001724 82 230 0.0 0.9 0.00 0.02 0.02 82 1012.4
20260906001219 82 224 0.0 0.0 0.00 0.02 0.02 81 1012.6
20260906000715 82 230 0.0 0.0 0.00 0.02 0.02 80 1012.7
20260906000212 83 230 0.0 0.0 0.00 0.02 0.02 78 1012.8
20260905235709 83 220 0.0 0.0 0.00 0.02 0.02 77 1012.4
20260905235204 84 228 0.9 0.9 0.00 0.02 0.02 76 1012.4
20260905234659 84 231 0.9 0.9 0.00 0.02 0.02 75 1012.4
20260905234155 84 228 0.0 0.9 0.00 0.02 0.02 75 1012.4
20260905233650 84 221 0.0 0.0 0.00 0.02 0.02 75 1012.4
20260905233149 85 231 0.0 0.0 0.00 0.02 0.02 75 1012.2
20260905232644 85 232 0.9 0.9 0.00 0.02 0.02 75 1012.3
20260905232140 86 228 0.9 1.7 0.00 0.02 0.02 75 1012.3
20260905231635 86 213 0.9 0.9 0.00 0.02 0.02 74 1012.3
20260905231131 87 229 0.0 0.0 0.00 0.02 0.02 72 1012.0
20260905230627 87 228 0.0 0.0 0.00 0.02 0.02 70 1012.1
20260905230124 87 237 0.0 0.0 0.00 0.02 0.02 69 1012.0
20260905225618 87 239 0.9 1.7 0.00 0.02 0.02 68 1012.2
20260905225113 88 211 0.9 0.9 0.00 0.02 0.02 66 1012.1
20260905224608 89 226 0.9 0.9 0.00 0.02 0.02 62 1012.2
20260905224107 89 228 0.9 0.9 0.00 0.02 0.02 60 1012.3
20260905223604 89 225 0.9 1.7 0.00 0.02 0.02 61 1012.2
20260905223101 89 224 0.9 0.9 0.00 0.02 0.02 61 1012.2
20260905222601 90 237 0.9 0.9 0.00 0.02 0.02 62 1012.2
20260905222056 89 228 0.9 0.9 0.00 0.02 0.02 61 1012.6
20260905221552 90 218 1.7 1.7 0.00 0.02 0.02 61 1012.2
20260905221048 89 218 0.0 0.0 0.00 0.02 0.02 61 1012.4
20260905220543 89 223 0.9 0.9 0.00 0.02 0.02 61 1012.4
20260905220039 90 222 0.9 0.9 0.00 0.02 0.02 60 1012.6
20260905215538 89 229 0.0 0.9 0.00 0.02 0.02 60 1012.2
20260905215035 90 226 0.9 0.9 0.00 0.02 0.02 59 1012.3
20260905214531 89 238 0.9 0.9 0.00 0.02 0.02 60 1012.5
20260905214025 89 121 0.9 1.7 0.00 0.02 0.02 58 1012.5
20260905213521 89 206 1.7 2.6 0.00 0.02 0.02 61 1012.5
20260905213016 90 195 1.7 1.7 0.00 0.02 0.02 60 1012.5
20260905212511 90 226 1.7 1.7 0.00 0.02 0.02 60 1012.8
20260905212010 88 230 0.0 0.9 0.00 0.02 0.02 63 1012.6
20260905211506 86 238 0.0 0.0 0.00 0.02 0.02 76 1012.6
20260905211002 85 237 0.0 0.0 0.00 0.02 0.02 78 1012.7
20260905210457 85 238 0.0 0.0 0.00 0.02 0.02 78 1012.7
20260905205956 85 238 0.0 0.0 0.00 0.02 0.02 75 1012.6
20260905205451 85 238 0.0 0.0 0.00 0.02 0.02 75 1012.9
20260905204950 85 238 0.0 0.0 0.00 0.02 0.02 75 1012.8
20260905204446 84 238 0.0 0.0 0.00 0.02 0.02 72 1012.7
20260905203945 84 238 0.0 0.0 0.00 0.02 0.02 72 1012.9
20260905203440 84 239 0.0 0.0 0.00 0.02 0.02 73 1013.0
20260905202936 84 239 0.0 0.0 0.00 0.02 0.02 74 1013.0
20260905202431 84 240 0.0 0.0 0.00 0.02 0.02 71 1013.3
20260905201927 84 240 0.0 0.0 0.00 0.02 0.02 72 1013.2
20260905201422 84 241 0.0 0.9 0.00 0.02 0.02 75 1013.1
20260905200921 84 240 0.0 0.0 0.00 0.02 0.02 79 1013.2
20260905200417 82 226 0.0 0.0 0.00 0.02 0.02 80 1013.3
20260905195915 83 232 0.0 0.0 0.00 0.02 0.02 75 1013.3
20260905195411 81 227 0.0 0.0 0.00 0.02 0.02 78 1013.3
20260905194907 77 233 0.0 0.0 0.00 0.02 0.02 89 1013.4
20260905194405 75 246 0.0 0.9 0.00 0.02 0.02 92 1013.9
20260905193900 75 230 0.0 0.0 0.00 0.02 0.02 90 1013.8
20260905193355 73 235 2.6 2.6 0.00 0.02 0.02 93 1013.7
20260905192850 74 221 0.0 0.9 0.00 0.02 0.02 92 1013.4
20260905192346 75 224 0.0 0.0 0.00 0.02 0.02 89 1014.0
20260905191845 75 223 0.0 0.0 0.00 0.02 0.02 92 1014.2
20260905191345 75 230 0.0 0.0 0.05 0.02 0.02 92 1014.4
20260905190843 76 231 0.0 0.0 0.05 0.02 0.02 90 1014.6
20260905190342 78 236 0.0 0.0 0.07 0.01 0.01 87 1014.5
20260905185841 80 251 0.0 0.9 0.07 0.01 0.01 82 1014.9
20260905185337 83 259 0.9 0.9 0.00 0.00 0.00 73 1014.4
20260905184835 86 276 1.7 2.6 0.00 0.00 0.00 72 1014.4
20260905184335 88 254 0.9 1.7 0.00 0.00 0.00 72 1014.2
20260905183833 91 355 3.5 4.3 0.00 0.00 0.00 66 1014.3
20260905183329 94 235 0.0 0.0 0.00 0.00 0.00 58 1014.0
20260905182823 96 223 0.0 0.0 0.00 0.00 0.00 52 1014.1
20260905182323 97 237 0.0 0.0 0.00 0.00 0.00 52 1014.1
20260905181819 96 256 0.9 0.9 0.00 0.00 0.00 57 1014.0
20260905181318 96 255 0.9 0.9 0.00 0.00 0.00 52 1014.3
20260905180812 97 261 0.9 0.9 0.00 0.00 0.00 55 1014.2
20260905180307 95 236 0.0 0.0 0.00 0.00 0.00 56 1014.3
20260905175802 95 253 0.9 0.9 0.00 0.00 0.00 58 1014.4
20260905175257 94 254 0.9 0.9 0.00 0.00 0.00 59 1014.4
20260905174752 95 247 0.9 0.9 0.00 0.00 0.00 62 1014.2
20260905174247 95 241 0.0 0.0 0.00 0.00 0.00 60 1014.3
20260905173738 94 239 0.9 0.9 0.00 0.00 0.00 62 1014.2
20260905173233 95 240 0.0 0.9 0.00 0.00 0.00 59 1014.3
20260905172732 95 248 0.9 0.9 0.00 0.00 0.00 57 1014.4
20260905172227 95 279 0.9 1.7 0.00 0.00 0.00 61 1014.5
20260905171723 94 267 1.7 1.7 0.00 0.00 0.00 65 1014.5
20260905171219 94 241 0.0 0.9 0.00 0.00 0.00 62 1014.6
20260905170716 93 262 0.9 1.7 0.00 0.00 0.00 60 1014.6
20260905170215 94 206 0.0 0.9 0.00 0.00 0.00 62 1014.7
20260905165709 93 236 0.0 0.9 0.00 0.00 0.00 64 1015.0
20260905165205 93 268 0.9 0.9 0.00 0.00 0.00 62 1015.0
20260905164659 94 244 0.0 0.0 0.00 0.00 0.00 64 1014.8
20260905164159 93 245 0.9 0.9 0.00 0.00 0.00 63 1014.9
20260905163655 93 215 0.0 0.0 0.00 0.00 0.00 66 1015.1
20260905163151 93 203 1.7 1.7 0.00 0.00 0.00 63 1015.1
20260905162647 93 240 0.9 0.9 0.00 0.00 0.00 65 1015.3
20260905162147 92 221 0.0 0.0 0.00 0.00 0.00 65 1015.3
20260905161647 94 224 0.0 0.9 0.00 0.00 0.00 65 1015.2
20260905161144 93 223 0.0 0.0 0.00 0.00 0.00 66 1015.3
20260905160638 93 197 0.9 0.9 0.00 0.00 0.00 66 1015.3
20260905160132 92 231 0.9 0.9 0.00 0.00 0.00 71 1015.1
20260905155627 90 188 0.9 0.9 0.00 0.00 0.00 70 1015.3
20260905155125 91 221 1.7 1.7 0.00 0.00 0.00 71 1015.3
20260905154620 90 224 0.0 0.0 0.00 0.00 0.00 72 1015.4
20260905154116 89 224 0.0 0.0 0.00 0.00 0.00 73 1015.7
20260905153611 89 238 0.0 0.0 0.00 0.00 0.00 73 1015.7
20260905153106 89 219 0.0 0.0 0.00 0.00 0.00 72 1015.6
20260905152602 89 224 0.0 0.0 0.00 0.00 0.00 73 1015.4
20260905152056 87 229 0.9 1.7 0.00 0.00 0.00 75 1015.2
20260905151551 88 204 0.0 0.9 0.00 0.00 0.00 72 1015.6
20260905151046 88 233 0.9 0.9 0.00 0.00 0.00 73 1015.3
20260905150542 87 227 0.9 0.9 0.00 0.00 0.00 74 1015.7
20260905150040 87 222 0.9 1.7 0.00 0.00 0.00 73 1015.7
20260905145533 88 246 0.9 0.9 0.00 0.00 0.00 73 1015.6
20260905145032 87 234 0.9 0.9 0.00 0.00 0.00 74 1015.6
20260905144528 86 222 1.7 1.7 0.00 0.00 0.00 76 1015.5
20260905144026 86 221 0.0 0.0 0.00 0.00 0.00 79 1015.6
20260905143526 84 207 0.0 0.0 0.00 0.00 0.00 80 1015.6
20260905143021 83 228 0.0 0.9 0.00 0.00 0.00 83 1015.8
20260905142520 82 232 1.7 2.6 0.00 0.00 0.00 83 1015.8
20260905142015 83 226 0.0 0.9 0.00 0.00 0.00 81 1015.7
20260905141514 82 220 0.0 0.0 0.00 0.00 0.00 83 1015.7
20260905141012 80 224 0.0 0.9 0.00 0.00 0.00 85 1015.6
20260905140506 80 231 0.9 1.7 0.00 0.00 0.00 86 1015.7
20260905140005 80 206 0.9 0.9 0.00 0.00 0.00 86 1015.4
20260905135501 79 201 0.9 0.9 0.00 0.00 0.00 88 1015.8
20260905134956 78 221 0.0 0.0 0.00 0.00 0.00 89 1015.8
20260905134455 78 226 0.0 0.9 0.00 0.00 0.00 89 1015.8
20260905133954 78 230 0.0 0.0 0.00 0.00 0.00 90 1015.6
20260905133449 77 223 0.0 0.9 0.00 0.00 0.00 91 1015.7
20260905132944 77 212 0.9 0.9 0.00 0.00 0.00 91 1015.9
20260905132439 77 226 0.0 0.0 0.00 0.00 0.00 92 1015.7
20260905131939 76 203 0.0 0.0 0.00 0.00 0.00 93 1016.1
20260905131436 76 222 0.0 0.9 0.00 0.00 0.00 94 1016.0
20260905130935 76 228 0.0 0.0 0.00 0.00 0.00 95 1016.3
20260905130429 75 226 0.9 0.9 0.00 0.00 0.00 95 1016.1
20260905125929 75 222 0.0 0.0 0.00 0.00 0.00 95 1016.0
20260905125424 75 230 0.0 0.0 0.00 0.00 0.00 96 1016.2
20260905124919 75 215 0.0 0.0 0.00 0.00 0.00 96 1016.2
20260905124416 74 232 0.0 0.9 0.00 0.00 0.00 96 1016.3
20260905123916 75 231 0.0 0.9 0.00 0.00 0.00 95 1016.1
20260905123413 74 224 0.0 0.0 0.00 0.00 0.00 96 1016.0
20260905122908 74 228 0.0 0.0 0.00 0.00 0.00 96 1016.2
20260905122407 74 228 0.0 0.0 0.00 0.00 0.00 95 1015.9
20260905121902 75 228 0.9 0.9 0.00 0.00 0.00 96 1015.9
20260905121358 74 230 0.0 0.9 0.00 0.00 0.00 96 1015.7
20260905120858 74 222 0.0 0.0 0.00 0.00 0.00 97 1015.7
20260905120357 74 224 0.0 0.0 0.00 0.00 0.00 96 1015.8
20260905115852 74 226 0.0 0.0 0.00 0.00 0.00 97 1015.7
20260905115352 74 228 0.0 0.0 0.00 0.00 0.00 97 1015.6
20260905114847 74 230 0.0 0.0 0.00 0.00 0.00 97 1015.6
20260905114346 73 221 0.0 0.0 0.00 0.00 0.00 97 1015.8
20260905113839 73 222 0.0 0.9 0.00 0.00 0.00 98 1015.7
20260905113335 73 228 0.0 0.0 0.00 0.00 0.00 98 1015.3
20260905112830 73 230 0.0 0.9 0.00 0.00 0.00 98 1015.3
20260905112325 73 230 0.0 0.9 0.00 0.00 0.00 98 1015.4
20260905111820 73 230 0.0 0.0 0.00 0.00 0.00 99 1015.2
20260905111314 73 230 0.0 0.0 0.00 0.00 0.00 99 1015.2
20260905110814 73 215 0.0 0.9 0.00 0.00 0.00 99 1015.0
20260905110314 73 230 0.0 0.0 0.00 0.00 0.00 99 1015.0
20260905105810 72 230 0.0 0.0 0.00 0.00 0.00 99 1014.9
20260905105308 73 218 0.0 0.0 0.00 0.00 0.00 99 1014.8
20260905104802 73 219 0.0 0.0 0.00 0.00 0.00 99 1015.0
20260905104259 72 219 0.0 0.0 0.00 0.00 0.00 99 1014.7
20260905103759 73 219 0.0 0.0 0.00 0.00 0.00 99 1014.8
20260905103255 73 218 0.0 0.0 0.00 0.00 0.00 99 1014.6
20260905102750 73 217 0.0 0.0 0.00 0.00 0.00 99 1014.8
20260905102247 73 230 0.0 0.0 0.00 0.00 0.00 99 1014.7
20260905101746 73 236 0.0 0.0 0.00 0.00 0.00 98 1014.6
20260905101239 73 230 0.0 0.0 0.00 0.00 0.00 98 1014.6
20260905100734 73 230 0.0 0.0 0.00 0.00 0.00 98 1014.5
20260905100230 73 230 0.0 0.0 0.00 0.00 0.00 98 1014.6
20260905095724 73 230 0.0 0.0 0.00 0.00 0.00 98 1014.6
20260905095224 73 230 0.0 0.0 0.00 0.00 0.00 98 1014.5
20260905094719 73 228 0.0 0.0 0.00 0.00 0.00 98 1014.5
20260905094218 73 228 0.0 0.0 0.00 0.00 0.00 98 1014.3
20260905093713 73 228 0.0 0.0 0.00 0.00 0.00 98 1014.4
20260905093209 73 220 0.0 0.0 0.00 0.00 0.00 98 1014.2
20260905092705 73 228 0.0 0.0 0.00 0.00 0.00 98 1014.4
20260905092200 73 226 0.0 0.9 0.00 0.00 0.00 99 1014.2
20260905091700 73 222 0.0 0.0 0.00 0.00 0.00 99 1014.3
20260905091159 73 222 0.0 0.0 0.00 0.00 0.00 99 1014.2
20260905090659 73 226 0.0 0.0 0.00 0.00 0.00 99 1014.3
20260905090155 73 230 0.0 0.0 0.00 0.00 0.00 99 1014.2
20260905085653 74 234 0.0 0.0 0.00 0.00 0.00 99 1014.4
20260905085149 74 224 0.0 0.0 0.00 0.00 0.00 99 1014.4
20260905084648 74 230 0.0 0.0 0.00 0.00 0.00 99 1014.2
20260905084143 74 223 0.0 0.9 0.00 0.00 0.00 99 1014.3
20260905083637 74 233 0.0 0.0 0.00 0.00 0.00 99 1014.4
20260905083134 74 216 0.0 0.0 0.00 0.00 0.00 99 1014.4
20260905082629 74 216 0.0 0.0 0.00 0.00 0.00 98 1014.3
20260905082125 74 216 0.0 0.0 0.00 0.00 0.00 98 1014.4
20260905081626 74 216 0.0 0.0 0.00 0.00 0.00 98 1014.4
20260905081126 74 217 0.0 0.0 0.00 0.00 0.00 98 1014.6
20260905080620 74 212 0.0 0.0 0.00 0.00 0.00 98 1014.6
20260905080115 74 218 0.0 0.0 0.00 0.00 0.00 98 1014.6
20260905075614 74 220 0.0 0.0 0.00 0.00 0.00 98 1014.6
20260905075113 74 220 0.0 0.0 0.00 0.00 0.00 98 1014.4
20260905074613 75 220 0.0 0.0 0.00 0.00 0.00 98 1014.4
20260905074109 75 220 0.0 0.0 0.00 0.00 0.00 98 1014.7
20260905073604 75 219 0.0 0.0 0.00 0.00 0.00 98 1014.6
20260905073100 75 220 0.0 0.0 0.00 0.00 0.00 98 1014.8
20260905072559 75 218 0.0 0.0 0.00 0.00 0.00 97 1014.5
20260905072055 75 218 0.0 0.0 0.00 0.00 0.00 97 1014.7
20260905071551 75 218 0.0 0.0 0.00 0.00 0.00 97 1014.6
20260905071046 75 218 0.0 0.0 0.00 0.00 0.00 98 1014.9
20260905070541 75 222 0.0 0.0 0.00 0.00 0.00 98 1014.9
20260905070037 75 222 0.0 0.0 0.00 0.00 0.00 98 1015.0
20260905065535 75 221 0.0 0.0 0.00 0.00 0.00 98 1014.8
20260905065030 75 221 0.0 0.0 0.00 0.00 0.00 98 1014.8
20260905064525 75 222 0.0 0.0 0.00 0.00 0.00 98 1014.8
20260905064020 75 223 0.0 0.9 0.00 0.00 0.00 98 1014.7
20260905063519 75 222 0.0 0.0 0.00 0.00 0.00 98 1014.9
20260905063016 75 222 0.0 0.0 0.00 0.00 0.00 98 1014.9
20260905062515 75 222 0.0 0.0 0.00 0.00 0.00 98 1015.0
20260905062010 75 223 0.0 0.0 0.00 0.00 0.00 97 1015.1
20260905061505 75 224 0.9 0.9 0.00 0.00 0.00 97 1015.0
20260905061004 75 223 0.9 0.9 0.00 0.00 0.00 97 1015.0
20260905060501 75 221 0.0 0.0 0.00 0.00 0.00 97 1015.3
20260905060000 75 221 0.0 0.0 0.00 0.00 0.00 97 1015.2
20260905055459 75 221 0.0 0.0 0.00 0.00 0.00 98 1015.3
20260905054954 75 226 0.0 0.0 0.00 0.00 0.00 98 1015.3
20260905054450 75 228 0.0 0.0 0.00 0.00 0.00 98 1015.2
20260905053945 75 228 0.0 0.0 0.00 0.00 0.00 97 1015.3
20260905053440 75 228 0.0 0.0 0.00 0.00 0.00 97 1015.4
20260905052936 75 228 0.0 0.0 0.00 0.00 0.00 97 1015.4
20260905052435 75 228 0.0 0.0 0.00 0.00 0.00 97 1015.1
20260905051934 75 228 0.0 0.0 0.00 0.00 0.00 96 1015.2
20260905051424 76 228 0.0 0.0 0.00 0.00 0.00 96 1015.3
20260905050921 76 229 0.0 0.0 0.00 0.00 0.00 96 1015.2
20260905050412 76 228 0.0 0.0 0.00 0.00 0.00 96 1015.3
20260905045907 76 228 0.0 0.0 0.00 0.12 0.12 96 1015.3
20260905045402 76 228 0.0 0.0 0.00 0.12 0.12 95 1015.2
20260905044857 76 230 0.0 0.0 0.00 0.12 0.12 95 1015.1
20260905044352 77 228 0.0 0.0 0.00 0.12 0.12 94 1015.1
20260905043851 77 230 0.0 0.0 0.00 0.12 0.12 94 1015.1
20260905043345 78 228 0.0 0.0 0.00 0.12 0.12 92 1015.3
20260905042840 78 234 0.0 0.0 0.00 0.12 0.12 90 1015.2
20260905042335 78 235 0.0 0.0 0.00 0.12 0.12 91 1015.1
20260905041829 78 221 0.0 0.9 0.00 0.12 0.12 91 1015.1
20260905041326 78 226 0.0 0.0 0.00 0.12 0.12 91 1015.3
20260905040825 78 222 0.0 0.0 0.00 0.12 0.12 91 1015.2
20260905040324 78 222 0.0 0.0 0.00 0.12 0.12 91 1015.2
20260905035819 78 232 0.0 0.0 0.00 0.12 0.12 90 1015.1
20260905035315 78 232 0.0 0.0 0.00 0.12 0.12 89 1015.5
20260905034811 78 234 0.0 0.0 0.00 0.12 0.12 89 1015.2
20260905034306 78 234 0.0 0.0 0.00 0.12 0.12 89 1015.4
20260905033805 78 234 0.0 0.0 0.00 0.12 0.12 90 1015.4
20260905033301 78 233 0.0 0.0 0.00 0.12 0.12 91 1015.5
20260905032800 78 228 0.0 0.0 0.00 0.12 0.12 91 1015.6
20260905032255 79 228 0.0 0.0 0.00 0.12 0.12 91 1015.7
20260905031750 79 230 0.0 0.0 0.00 0.12 0.12 90 1015.7
20260905031246 80 228 0.0 0.0 0.00 0.12 0.12 88 1015.6
20260905030741 80 224 0.0 0.0 0.00 0.12 0.12 87 1015.6
20260905030236 80 228 0.0 0.0 0.00 0.12 0.12 87 1015.9
20260905025731 81 230 0.0 0.0 0.00 0.12 0.12 86 1015.9
20260905025226 81 235 0.9 0.9 0.00 0.12 0.12 87 1015.7
20260905024722 81 240 0.0 0.9 0.00 0.12 0.12 86 1015.6
20260905024218 81 208 1.7 1.7 0.00 0.12 0.12 86 1015.4
20260905023713 81 204 0.9 0.9 0.00 0.12 0.12 85 1015.7
20260905023213 81 228 0.9 0.9 0.00 0.12 0.12 85 1015.6
20260905022712 81 236 0.9 0.9 0.00 0.12 0.12 85 1015.6